This demonstration page uses our WeatherBlox Daily Observations layout. Learn more.

Hourly Observations for April 17, 2016

Temp ( °F °C ) Dew Point ( °F °C ) Humidity (%) Winds ( mph kmh ) Pressure ( in mb ) Visibility ( mi km ) Precip ( " mm )
12:15 am 00:15 Cloudy with Light Rain 52 11.1 51 10.5 96 96 NE 9 15 30 1016 10 16.0934 0.01 0.254
12:35 am 00:35 Cloudy with Rain 57 13.7 56 13.1 96 96 E 14 22 29.97 1015 4 6.43736 0.07 1.778
12:55 am 00:55 Cloudy with Rain 57 14 56 13.3 96 96 ESE 15 24 29.97 1015 5 8.0467 0.13 3.302
1:15 am 01:15 Cloudy 57 14 56 13.3 96 96 ESE 13 20 29.97 1015 5 8.0467 0.04 1.016
1:35 am 01:35 Cloudy with Light Rain 57 14.1 56 13.4 96 96 SE 17 28 29.97 1015 7 11.26538 0.09 2.286
1:55 am 01:55 Cloudy with Rain 57 14.1 56 13.3 95 95 SE 15 24 29.97 1015 7 11.26538 0.11 2.794
2:15 am 02:15 Cloudy with Heavy Rain 57 14.1 56 13.3 95 95 S 12 19 29.97 1015 5 8.0467 0.07 1.778
2:35 am 02:35 Cloudy with Rain 53 11.5 51 10.6 94 94 SSW 12 19 30.03 1017 7 11.26538 0.22 5.588
2:55 am 02:55 Cloudy with Light Rain 48 9 46 7.9 93 93 W 21 33 30.06 1018 7 11.26538 0.26 6.604
3:15 am 03:15 Cloudy with Rain 44 6.7 42 5.7 93 93 WNW 21 33 30.06 1018 10 16.0934 0.01 0.254
3:35 am 03:35 Cloudy with Drizzle 43 6.3 42 5.3 93 93 NW 20 31 30.12 1020 10 16.0934 0.01 0.254
3:55 am 03:55 Cloudy with Rain 43 6 41 5 93 93 NW 20 31 30.12 1020 10 16.0934 0.01 0.254
4:15 am 04:15 Cloudy with Light Drizzle 42 5.8 40 4.7 93 93 NNW 17 28 30.09 1019 10 16.0934 0 0
4:35 am 04:35 Cloudy with Light Rain 42 5.6 40 4.6 93 93 N 24 39 30.06 1018 10 16.0934 0.01 0.254
4:55 am 04:55 Cloudy 42 5.8 41 4.8 93 93 NNW 12 19 30.09 1019 10 16.0934 0.01 0.254
5:15 am 05:15 Cloudy 43 6 41 5 93 93 NNW 8 13 30.12 1020 10 16.0934 0 0
5:35 am 05:35 Cloudy with Light Drizzle 43 6.2 41 5.2 93 93 N 6 9 30.12 1020 10 16.0934 0 0
5:55 am 05:55 Cloudy with Drizzle 44 6.5 42 5.5 93 93 NNE 10 17 30.06 1018 10 16.0934 0 0
6:15 am 06:15 Cloudy with Light Drizzle 44 6.5 42 5.7 95 95 N 5 7 30.06 1018 10 16.0934 0 0
6:35 am 06:35 Cloudy 44 6.5 42 5.7 95 95 Calm 30.09 1019 10 16.0934 0 0
6:55 am 06:55 Cloudy 44 6.6 42 5.8 95 95 NNW 3 6 30.09 1019 10 16.0934 0 0
7:15 am 07:15 Cloudy 44 6.5 42 5.7 95 95 NW 7 11 30.15 1021 10 16.0934 0 0
7:35 am 07:35 Cloudy 43 6.3 42 5.5 95 95 Calm 30.15 1021 10 16.0934 0 0
7:55 am 07:55 Cloudy 44 6.5 42 5.6 94 94 Calm 30.15 1021 10 16.0934 0 0
8:15 am 08:15 Cloudy 44 6.6 42 5.8 95 95 Calm 30.18 1022 10 16.0934 0 0
8:35 am 08:35 Cloudy 44 6.5 42 5.6 94 94 NW 6 9 30.18 1022 10 16.0934 0 0
8:55 am 08:55 Cloudy 44 6.7 42 5.8 94 94 NNW 6 9 30.18 1022 10 16.0934 0 0
9:15 am 09:15 Cloudy 44 6.9 43 6 94 94 NNW 6 9 30.18 1022 10 16.0934 0 0
9:35 am 09:35 Cloudy 44 6.8 43 6 95 95 NNW 9 15 30.18 1022 10 16.0934 0 0
9:55 am 09:55 Cloudy with Rain 45 7 43 6 93 93 NNW 8 13 30.18 1022 4 6.43736 0 0
10:15 am 10:15 Cloudy with Heavy Drizzle 44 6.7 43 6 95 95 NNW 8 13 30.18 1022 1.75 2.816345 0.02 0.508
10:35 am 10:35 Cloudy with Drizzle 44 6.7 43 6 95 95 NNW 10 17 30.18 1022 1.5 2.41401 0.04 1.016
10:55 am 10:55 Cloudy with Light Drizzle 44 6.6 43 6 96 96 NNW 13 20 30.18 1022 2 3.21868 0.05 1.27
11:15 am 11:15 Cloudy with Rain 44 6.7 43 6 95 95 NNW 9 15 30.18 1022 1.5 2.41401 0 0
11:35 am 11:35 Cloudy with Light Rain 44 6.5 43 5.9 96 96 NNW 15 24 30.18 1022 2 3.21868 0.01 0.254
11:55 am 11:55 Cloudy with Light Rain 44 6.5 42 5.8 95 95 NNW 14 22 30.18 1022 2 3.21868 0.03 0.762
12:15 pm 12:15 Cloudy with Rain 44 6.5 42 5.8 95 95 N 15 24 30.18 1022 3 4.82802 0.06 1.524
12:35 pm 12:35 Cloudy with Rain 44 6.5 42 5.8 95 95 NNW 14 22 30.18 1022 3 4.82802 0.12 3.048
12:55 pm 12:55 Cloudy with Heavy Rain 44 6.4 42 5.6 95 95 N 16 26 30.18 1022 3 4.82802 0.2 5.08
1:15 pm 13:15 Cloudy with Rain 44 6.5 42 5.6 94 94 N 13 20 30.18 1022 5 8.0467 0.04 1.016
1:35 pm 13:35 Cloudy with Rain 44 6.5 42 5.6 94 94 N 13 20 30.18 1022 2.5 4.02335 0.09 2.286
1:55 pm 13:55 Cloudy with Light Rain 44 6.7 43 6 95 95 N 17 28 30.18 1022 5 8.0467 0.14 3.556
2:15 pm 14:15 Cloudy with Light Rain 44 6.8 43 6 95 95 N 14 22 30.18 1022 4 6.43736 0.02 0.508
2:35 pm 14:35 Cloudy with Rain 44 6.7 43 6 95 95 N 8 13 30.21 1023 2.5 4.02335 0.04 1.016
2:55 pm 14:55 Cloudy with Rain 44 6.6 43 6 96 96 N 13 20 30.18 1022 5 8.0467 0.06 1.524
3:15 pm 15:15 Cloudy with Light Drizzle 44 6.7 43 6 95 95 N 12 19 30.18 1022 5 8.0467 0 0
3:35 pm 15:35 Cloudy with Mist and Fog 44 6.8 43 6 95 95 NNW 13 20 30.21 1023 5 8.0467 0.01 0.254
3:55 pm 15:55 Cloudy with Rain 44 6.7 42 5.8 94 94 NNW 8 13 30.21 1023 3 4.82802 0.01 0.254
4:15 pm 16:15 Cloudy with Light Rain 44 6.6 42 5.7 94 94 NNW 14 22 30.21 1023 1.75 2.816345 0.01 0.254
4:35 pm 16:35 Cloudy with Rain 44 6.5 42 5.6 94 94 NNW 15 24 30.21 1023 2.5 4.02335 0.03 0.762
4:55 pm 16:55 Cloudy with Light Rain 43 6.3 42 5.5 95 95 NNW 14 22 30.21 1023 3 4.82802 0.04 1.016
5:15 pm 17:15 Cloudy 44 6.5 42 5.5 93 93 N 16 26 30.21 1023 7 11.26538 0 0
5:35 pm 17:35 Cloudy with Rain 43 6.2 41 5.2 93 93 N 15 24 30.21 1023 7 11.26538 0.01 0.254
5:55 pm 17:55 Cloudy with Rain 43 6.2 42 5.3 94 94 N 17 28 30.21 1023 4 6.43736 0.05 1.27
6:15 pm 18:15 Cloudy with Light Rain 43 6 41 5 93 93 N 20 31 30.21 1023 5 8.0467 0.02 0.508
6:35 pm 18:35 Cloudy with Light Rain 42 5.8 41 5 95 95 N 13 20 30.21 1023 5 8.0467 0.03 0.762
6:55 pm 18:55 Cloudy with Light Rain 43 6 41 5.1 94 94 N 15 24 30.21 1023 7 11.26538 0.03 0.762
7:15 pm 19:15 Cloudy with Light Rain 43 6 41 5.1 94 94 N 18 30 30.24 1024 7 11.26538 0 0
7:35 pm 19:35 Cloudy with Rain 43 5.9 41 4.9 93 93 N 15 24 30.24 1024 5 8.0467 0.01 0.254
7:55 pm 19:55 Cloudy with Light Rain 42 5.8 41 5 95 95 N 16 26 30.24 1024 5 8.0467 0.03 0.762
8:15 pm 20:15 Cloudy with Rain 43 5.9 41 5.1 95 95 N 14 22 30.24 1024 7 11.26538 0.02 0.508
8:35 pm 20:35 Cloudy with Light Rain 42 5.8 41 5 95 95 N 12 19 30.24 1024 7 11.26538 0.04 1.016
8:55 pm 20:55 Cloudy with Heavy Rain 42 5.8 41 5 95 95 N 10 17 30.24 1024 4 6.43736 0.06 1.524
9:15 pm 21:15 Cloudy with Drizzle 42 5.7 41 5 95 95 N 9 15 30.24 1024 4 6.43736 0.01 0.254
9:35 pm 21:35 Cloudy with Drizzle 42 5.7 41 5 95 95 N 8 13 30.27 1025 4 6.43736 0.03 0.762
9:55 pm 21:55 Cloudy with Drizzle 42 5.7 41 5 95 95 N 13 20 30.27 1025 5 8.0467 0.05 1.27
10:15 pm 22:15 Cloudy with Drizzle 42 5.6 41 5 96 96 N 14 22 30.24 1024 5 8.0467 0.02 0.508
10:35 pm 22:35 Cloudy with Light Drizzle 42 5.5 41 4.9 96 96 N 13 20 30.24 1024 7 11.26538 0.02 0.508
10:55 pm 22:55 Cloudy with Light Rain 42 5.6 41 5 96 96 NNW 14 22 30.24 1024 5 8.0467 0.02 0.508
11:15 pm 23:15 Cloudy with Rain 42 5.5 41 4.8 95 95 NNW 14 22 30.27 1025 4 6.43736 0.03 0.762
11:35 pm 23:35 Cloudy with Rain 42 5.5 40 4.7 95 95 NNW 10 17 30.27 1025 4 6.43736 0.08 2.032
11:55 pm 23:55 Cloudy with Rain 42 5.5 40 4.7 95 95 NNW 14 22 30.27 1025 4 6.43736 0.19 4.826

Powered by AerisWeather